| time (UTC) | temp C | wind direction | speed KPH | gust KPH | rain 1hr cm | rain 24hr cm | rain mn cm | humidity % | barometer mb |
| 20260506173542 | 16 | 228 | 3.2 | 6.4 | 0.25 | 0.97 | 0.97 | 93 | 1010.1 |
| 20260506172524 | 16 | 227 | 12.9 | 17.7 | 0.25 | 0.97 | 0.97 | 93 | 1010.0 |
| 20260506171516 | 16 | 222 | 9.7 | 11.3 | 0.25 | 0.97 | 0.97 | 92 | 1009.9 |
| 20260506170519 | 16 | 232 | 12.9 | 17.7 | 0.25 | 0.97 | 0.97 | 93 | 1009.8 |
| 20260506165521 | 16 | 211 | 11.3 | 19.3 | 0.28 | 0.97 | 0.97 | 89 | 1009.9 |
| 20260506164523 | 18 | 150 | 11.3 | 17.7 | 0.03 | 0.71 | 0.69 | 77 | 1008.9 |
| 20260506163515 | 18 | 156 | 9.7 | 11.3 | 0.03 | 0.69 | 0.69 | 77 | 1009.2 |
| 20260506162518 | 18 | 193 | 9.7 | 20.9 | 0.03 | 0.69 | 0.69 | 75 | 1009.5 |
| 20260506161521 | 18 | 156 | 14.5 | 17.7 | 0.00 | 0.69 | 0.69 | 74 | 1009.7 |
| 20260506160524 | 18 | 190 | 6.4 | 9.7 | 0.00 | 0.69 | 0.69 | 75 | 1009.7 |
| 20260506155515 | 18 | 161 | 11.3 | 17.7 | 0.00 | 0.69 | 0.69 | 74 | 1009.7 |
| 20260506154517 | 18 | 150 | 4.8 | 6.4 | 0.00 | 0.69 | 0.69 | 74 | 1009.9 |
| 20260506153520 | 18 | 172 | 8.0 | 14.5 | 0.00 | 0.69 | 0.69 | 76 | 1009.8 |
| 20260506152522 | 18 | 166 | 8.0 | 12.9 | 0.00 | 0.69 | 0.69 | 75 | 1010.1 |
| 20260506151545 | 18 | 162 | 9.7 | 11.3 | 0.00 | 0.69 | 0.69 | 80 | 1010.2 |
| 20260506150517 | 18 | 149 | 8.0 | 9.7 | 0.00 | 0.69 | 0.69 | 81 | 1010.4 |
| 20260506145519 | 17 | 82 | 4.8 | 6.4 | 0.00 | 0.69 | 0.69 | 79 | 1010.5 |
| 20260506144522 | 17 | 73 | 4.8 | 9.7 | 0.00 | 0.69 | 0.69 | 82 | 1010.5 |
| 20260506143544 | 17 | 35 | 6.4 | 14.5 | 0.00 | 0.69 | 0.69 | 82 | 1010.6 |
| 20260506142516 | 17 | 40 | 4.8 | 6.4 | 0.00 | 0.69 | 0.69 | 83 | 1010.7 |
| 20260506141518 | 16 | 31 | 6.4 | 9.7 | 0.00 | 0.69 | 0.69 | 87 | 1010.7 |
| 20260506140521 | 16 | 137 | 4.8 | 6.4 | 0.00 | 0.69 | 0.69 | 86 | 1010.7 |
| 20260506135523 | 16 | 154 | 1.6 | 3.2 | 0.00 | 0.69 | 0.69 | 87 | 1010.9 |
| 20260506134516 | 16 | 142 | 1.6 | 3.2 | 0.00 | 0.69 | 0.69 | 88 | 1010.9 |
| 20260506133541 | 16 | 229 | 4.8 | 6.4 | 0.00 | 0.69 | 0.69 | 86 | 1011.0 |
| 20260506132521 | 16 | 213 | 8.0 | 9.7 | 0.00 | 0.69 | 0.69 | 85 | 1011.1 |
| 20260506131523 | 16 | 201 | 6.4 | 8.0 | 0.00 | 0.69 | 0.69 | 85 | 1011.2 |
| 20260506130515 | 16 | 198 | 11.3 | 14.5 | 0.00 | 0.69 | 0.69 | 83 | 1011.4 |
| 20260506125517 | 17 | 191 | 11.3 | 14.5 | 0.00 | 0.69 | 0.69 | 82 | 1011.4 |
| 20260506124520 | 17 | 184 | 16.1 | 22.5 | 0.00 | 0.69 | 0.69 | 81 | 1011.4 |
| 20260506123522 | 16 | 192 | 19.3 | 20.9 | 0.00 | 0.71 | 0.69 | 81 | 1011.4 |
| 20260506122515 | 16 | 184 | 20.9 | 27.4 | 0.00 | 0.71 | 0.69 | 89 | 1011.4 |
| 20260506121517 | 16 | 197 | 20.9 | 27.4 | 0.00 | 0.71 | 0.69 | 88 | 1011.4 |
| 20260506120519 | 16 | 185 | 8.0 | 12.9 | 0.00 | 0.71 | 0.69 | 89 | 1011.4 |
| 20260506115522 | 15 | 172 | 8.0 | 9.7 | 0.00 | 0.71 | 0.69 | 90 | 1011.5 |
| 20260506114524 | 16 | 176 | 9.7 | 14.5 | 0.00 | 0.71 | 0.69 | 87 | 1011.4 |
| 20260506113517 | 16 | 179 | 11.3 | 14.5 | 0.00 | 0.71 | 0.66 | 84 | 1011.5 |
| 20260506112519 | 16 | 165 | 17.7 | 27.4 | 0.00 | 0.71 | 0.66 | 84 | 1011.6 |
| 20260506111521 | 16 | 162 | 11.3 | 14.5 | 0.00 | 0.74 | 0.66 | 85 | 1011.4 |
| 20260506110544 | 16 | 177 | 17.7 | 20.9 | 0.00 | 0.74 | 0.66 | 84 | 1011.6 |
| 20260506105516 | 16 | 171 | 8.0 | 11.3 | 0.00 | 0.74 | 0.66 | 86 | 1011.6 |
| 20260506104559 | 16 | 162 | 11.3 | 14.5 | 0.00 | 0.74 | 0.66 | 85 | 1011.6 |
| 20260506103521 | 16 | 171 | 12.9 | 16.1 | 0.03 | 0.74 | 0.66 | 86 | 1011.7 |
| 20260506102523 | 15 | 158 | 14.5 | 17.7 | 0.03 | 0.74 | 0.66 | 87 | 1011.9 |
| 20260506101516 | 15 | 140 | 12.9 | 17.7 | 0.03 | 0.74 | 0.66 | 89 | 1011.9 |
| 20260506100518 | 15 | 159 | 14.5 | 20.9 | 0.03 | 0.74 | 0.66 | 87 | 1012.0 |
| 20260506095520 | 15 | 161 | 17.7 | 20.9 | 0.03 | 0.74 | 0.66 | 86 | 1012.0 |
| 20260506094523 | 15 | 164 | 12.9 | 17.7 | 0.03 | 0.74 | 0.66 | 90 | 1012.2 |
| 20260506093515 | 15 | 176 | 11.3 | 17.7 | 0.03 | 0.74 | 0.66 | 93 | 1012.3 |
| 20260506092517 | 15 | 130 | 4.8 | 6.4 | 0.03 | 0.74 | 0.64 | 93 | 1012.1 |
| 20260506091521 | 15 | 128 | 6.4 | 8.0 | 0.03 | 0.74 | 0.64 | 92 | 1012.1 |
| 20260506090523 | 15 | 180 | 4.8 | 6.4 | 0.08 | 0.74 | 0.64 | 93 | 1012.1 |
| 20260506085515 | 15 | 81 | 9.7 | 12.9 | 0.13 | 0.74 | 0.64 | 94 | 1011.9 |
| 20260506084517 | 15 | 91 | 11.3 | 14.5 | 0.13 | 0.71 | 0.64 | 94 | 1011.9 |
| 20260506083520 | 15 | 92 | 9.7 | 12.9 | 0.15 | 0.71 | 0.64 | 93 | 1011.9 |
| 20260506082522 | 15 | 137 | 9.7 | 12.9 | 0.15 | 0.71 | 0.61 | 91 | 1012.0 |
| 20260506081514 | 15 | 137 | 11.3 | 16.1 | 0.20 | 0.69 | 0.61 | 94 | 1012.0 |
| 20260506080517 | 15 | 119 | 9.7 | 12.9 | 0.20 | 0.66 | 0.58 | 95 | 1011.9 |
| 20260506073524 | 15 | 124 | 4.8 | 6.4 | 0.18 | 0.58 | 0.48 | 98 | 1011.9 |
| 20260506072537 | 14 | 106 | 4.8 | 4.8 | 0.18 | 0.53 | 0.46 | 98 | 1011.9 |
| 20260506071519 | 14 | 356 | 1.6 | 1.6 | 0.15 | 0.48 | 0.41 | 99 | 1011.9 |
| 20260506070522 | 14 | 0 | 4.8 | 4.8 | 0.13 | 0.46 | 0.38 | 99 | 1011.9 |
| 20260506061544 | 14 | 200 | 0.0 | 0.0 | 0.25 | 0.33 | 0.25 | 98 | 1011.7 |
| 20260506060516 | 14 | 51 | 3.2 | 3.2 | 0.25 | 0.33 | 0.25 | 98 | 1011.7 |
| 20260506050521 | 13 | 76 | 6.4 | 8.0 | 0.00 | 0.10 | 0.00 | 97 | 1011.3 |
| 20260506044517 | 13 | 149 | 1.6 | 3.2 | 0.00 | 0.10 | 0.00 | 98 | 1011.4 |
| 20260506043519 | 13 | 62 | 3.2 | 3.2 | 0.00 | 0.10 | 0.00 | 98 | 1011.5 |
| 20260506042521 | 13 | 163 | 4.8 | 4.8 | 0.00 | 0.10 | 0.00 | 98 | 1011.6 |
| 20260506041524 | 13 | 183 | 8.0 | 9.7 | 0.00 | 0.10 | 0.00 | 96 | 1011.6 |
| 20260506040517 | 13 | 335 | 1.6 | 1.6 | 0.00 | 0.10 | 0.00 | 96 | 1011.4 |
| 20260506035519 | 13 | 144 | 3.2 | 3.2 | 0.00 | 0.10 | 0.00 | 95 | 1011.6 |
| 20260506034521 | 13 | 163 | 3.2 | 4.8 | 0.00 | 0.10 | 0.00 | 95 | 1011.7 |
| 20260506033524 | 13 | 178 | 3.2 | 3.2 | 0.00 | 0.10 | 0.00 | 92 | 1011.8 |
| 20260506032516 | 13 | 49 | 1.6 | 1.6 | 0.00 | 0.10 | 0.00 | 94 | 1011.9 |
| 20260506031539 | 13 | 85 | 4.8 | 4.8 | 0.00 | 0.10 | 0.00 | 95 | 1012.0 |
| 20260506030521 | 13 | 153 | 3.2 | 4.8 | 0.00 | 0.10 | 0.00 | 93 | 1012.0 |
| 20260506025524 | 14 | 191 | 3.2 | 4.8 | 0.00 | 0.10 | 0.00 | 93 | 1012.1 |
| 20260506024517 | 13 | 94 | 1.6 | 1.6 | 0.00 | 0.10 | 0.00 | 93 | 1012.0 |
| 20260506023519 | 13 | 221 | 1.6 | 1.6 | 0.00 | 0.10 | 0.00 | 94 | 1012.4 |
| 20260506022521 | 13 | 119 | 1.6 | 1.6 | 0.00 | 0.10 | 0.00 | 94 | 1012.4 |
| 20260506021524 | 13 | 47 | 1.6 | 3.2 | 0.00 | 0.10 | 0.00 | 94 | 1012.5 |
| 20260506020516 | 14 | 202 | 1.6 | 1.6 | 0.00 | 0.10 | 0.00 | 92 | 1012.5 |
| 20260506015559 | 14 | 175 | 4.8 | 6.4 | 0.00 | 0.10 | 0.00 | 91 | 1012.6 |
| 20260506014521 | 14 | 166 | 4.8 | 4.8 | 0.00 | 0.10 | 0.00 | 89 | 1012.6 |
| 20260506013524 | 15 | 33 | 4.8 | 6.4 | 0.00 | 0.10 | 0.00 | 85 | 1012.5 |
| 20260506012517 | 15 | 32 | 3.2 | 3.2 | 0.00 | 0.10 | 0.00 | 86 | 1012.6 |
| 20260506011519 | 15 | 360 | 6.4 | 6.4 | 0.00 | 0.10 | 0.00 | 87 | 1012.5 |
| 20260506010522 | 14 | 3 | 4.8 | 8.0 | 0.00 | 0.10 | 0.00 | 89 | 1012.4 |
| 20260506005544 | 14 | 4 | 9.7 | 14.5 | 0.00 | 0.10 | 0.00 | 89 | 1012.3 |
| 20260506004517 | 15 | 319 | 8.0 | 9.7 | 0.00 | 0.10 | 0.00 | 85 | 1012.4 |
| 20260506003539 | 15 | 147 | 1.6 | 3.2 | 0.00 | 0.10 | 0.00 | 86 | 1012.3 |
| 20260506002542 | 15 | 86 | 1.6 | 3.2 | 0.00 | 0.10 | 0.00 | 87 | 1012.3 |
| 20260506001544 | 15 | 76 | 3.2 | 3.2 | 0.00 | 0.10 | 0.00 | 87 | 1012.4 |
| 20260506000517 | 15 | 19 | 4.8 | 4.8 | 0.00 | 0.10 | 0.00 | 87 | 1012.5 |
| 20260505235519 | 15 | 12 | 4.8 | 6.4 | 0.00 | 0.10 | 0.00 | 86 | 1012.5 |
| 20260505234522 | 15 | 200 | 1.6 | 3.2 | 0.00 | 0.10 | 0.00 | 85 | 1012.7 |
| 20260505233525 | 15 | 199 | 3.2 | 6.4 | 0.00 | 0.10 | 0.00 | 85 | 1012.8 |
| 20260505232517 | 15 | 124 | 4.8 | 6.4 | 0.00 | 0.10 | 0.00 | 84 | 1012.9 |
| 20260505231519 | 15 | 136 | 9.7 | 19.3 | 0.00 | 0.10 | 0.00 | 84 | 1013.0 |
| 20260505230543 | 15 | 124 | 4.8 | 6.4 | 0.00 | 0.10 | 0.00 | 84 | 1013.1 |
| 20260505225515 | 15 | 96 | 6.4 | 6.4 | 0.00 | 0.10 | 0.00 | 83 | 1013.1 |
| 20260505224517 | 14 | 75 | 4.8 | 6.4 | 0.00 | 0.10 | 0.00 | 84 | 1013.1 |
| 20260505223520 | 15 | 69 | 8.0 | 8.0 | 0.00 | 0.10 | 0.00 | 83 | 1013.1 |
| 20260505222522 | 14 | 111 | 8.0 | 9.7 | 0.00 | 0.10 | 0.00 | 85 | 1013.2 |
| 20260505221515 | 15 | 142 | 9.7 | 12.9 | 0.00 | 0.10 | 0.00 | 82 | 1013.2 |
| 20260505220518 | 15 | 114 | 8.0 | 9.7 | 0.00 | 0.10 | 0.00 | 82 | 1013.4 |
| 20260505215520 | 15 | 116 | 4.8 | 6.4 | 0.00 | 0.10 | 0.10 | 81 | 1013.5 |
| 20260505214522 | 14 | 114 | 6.4 | 9.7 | 0.00 | 0.10 | 0.10 | 86 | 1013.6 |
| 20260505213515 | 14 | 47 | 6.4 | 6.4 | 0.00 | 0.10 | 0.10 | 85 | 1013.5 |
| 20260505212517 | 13 | 100 | 4.8 | 4.8 | 0.00 | 0.10 | 0.10 | 89 | 1013.5 |
| 20260505211519 | 14 | 96 | 8.0 | 11.3 | 0.00 | 0.10 | 0.10 | 89 | 1013.6 |
| 20260505210521 | 14 | 106 | 8.0 | 9.7 | 0.00 | 0.10 | 0.10 | 87 | 1013.7 |
| 20260505205544 | 14 | 129 | 8.0 | 8.0 | 0.00 | 0.10 | 0.10 | 91 | 1013.7 |
| 20260505204518 | 14 | 141 | 8.0 | 9.7 | 0.00 | 0.10 | 0.10 | 89 | 1013.8 |
| 20260505203521 | 14 | 90 | 3.2 | 4.8 | 0.00 | 0.10 | 0.10 | 88 | 1013.8 |
| 20260505202522 | 15 | 117 | 6.4 | 8.0 | 0.00 | 0.10 | 0.10 | 87 | 1013.7 |
| 20260505201543 | 14 | 148 | 4.8 | 4.8 | 0.00 | 0.10 | 0.10 | 88 | 1013.8 |
| 20260505200523 | 14 | 107 | 4.8 | 6.4 | 0.00 | 0.10 | 0.10 | 90 | 1013.8 |
| 20260505195520 | 14 | 114 | 4.8 | 4.8 | 0.00 | 0.10 | 0.10 | 91 | 1013.8 |
| 20260505194520 | 13 | 105 | 4.8 | 6.4 | 0.00 | 0.10 | 0.10 | 93 | 1013.8 |
| 20260505193522 | 13 | 89 | 3.2 | 4.8 | 0.00 | 0.10 | 0.10 | 96 | 1013.8 |
| 20260505192515 | 13 | 21 | 6.4 | 6.4 | 0.00 | 0.10 | 0.10 | 97 | 1013.7 |
| 20260505191519 | 13 | 343 | 1.6 | 3.2 | 0.00 | 0.10 | 0.10 | 98 | 1013.5 |
| 20260505190519 | 13 | 344 | 3.2 | 3.2 | 0.00 | 0.10 | 0.10 | 98 | 1013.5 |
| 20260505185522 | 13 | 269 | 1.6 | 3.2 | 0.00 | 0.10 | 0.10 | 98 | 1013.6 |
| 20260505184531 | 13 | 113 | 1.6 | 3.2 | 0.00 | 0.10 | 0.10 | 98 | 1013.5 |
| 20260505183517 | 13 | 129 | 1.6 | 1.6 | 0.00 | 0.10 | 0.10 | 98 | 1013.4 |
| 20260505182522 | 13 | 126 | 3.2 | 3.2 | 0.00 | 0.10 | 0.10 | 98 | 1013.3 |
| 20260505181523 | 13 | 173 | 3.2 | 3.2 | 0.00 | 0.10 | 0.10 | 98 | 1013.4 |
| 20260505180524 | 13 | 133 | 3.2 | 3.2 | 0.00 | 0.10 | 0.10 | 98 | 1013.3 |
| 20260505175516 | 13 | 151 | 1.6 | 3.2 | 0.00 | 0.13 | 0.10 | 98 | 1013.4 |
| 20260505174520 | 13 | 141 | 4.8 | 4.8 | 0.00 | 0.13 | 0.10 | 97 | 1013.3 |